Location: Unspecified
(33.9239°N, 118.0544°W)
Time: 20:40:31
(UTC-07:00)

Resurs 1-4 Rocket - Visible Passes

Search period start: 24 June 2017 00:00
Search period end: 04 July 2017 00:00
Orbit: 801 x 813 km, 98.5° (Epoch: 24 June)

Date Brightness Start Highest point End Pass type
(mag) Time Alt. Az. Time Alt. Az. Time Alt. Az.
24 Jun 3.0 02:35:23 10° NNE 02:40:19 38° E 02:41:09 36° ESE visible
24 Jun 3.5 04:15:49 10° NNW 04:19:52 23° WNW 04:22:14 17° WSW visible
25 Jun 3.8 02:11:35 10° NE 02:15:37 22° E 02:16:16 21° ESE visible
25 Jun 2.8 03:50:37 10° N 03:55:30 38° WNW 03:57:20 29° WSW visible
26 Jun 4.5 01:48:55 10° ENE 01:50:50 12° E 01:51:23 12° E visible
26 Jun 2.1 03:25:47 10° N 03:31:03 67° WNW 03:32:27 47° SW visible
27 Jun 2.2 03:01:13 10° NNE 03:06:32 71° ESE 03:07:34 55° SSE visible
27 Jun 4.1 04:43:31 10° NW 04:45:41 13° WNW 04:47:51 10° W visible
28 Jun 3.0 02:36:57 10° NNE 02:41:55 39° E 02:42:41 37° ESE visible
28 Jun 3.6 04:17:29 10° NNW 04:21:26 22° WNW 04:23:46 16° W visible
29 Jun 3.8 02:13:06 10° NE 02:17:13 23° E 02:17:47 22° ESE visible
29 Jun 2.9 03:52:15 10° N 03:57:05 36° WNW 03:58:52 29° WSW visible
30 Jun 4.4 01:50:16 10° ENE 01:52:27 12° E 01:52:54 12° E visible
30 Jun 2.1 03:27:23 10° N 03:32:39 64° WNW 03:33:59 47° SW visible
01 Jul 2.1 03:02:48 10° NNE 03:08:08 74° ESE 03:09:05 58° SSE visible
01 Jul 4.1 04:45:20 10° NW 04:47:16 12° WNW 04:49:11 10° W visible
02 Jul 2.9 02:38:31 10° NNE 02:43:31 41° E 02:44:11 39° ESE visible
02 Jul 3.6 04:19:09 10° NNW 04:23:01 21° WNW 04:25:15 16° W visible
03 Jul 3.7 02:14:38 10° NE 02:18:50 24° E 02:19:17 23° ESE visible
03 Jul 2.9 03:53:54 10° N 03:58:40 35° WNW 04:00:22 28° WSW visible
